Location: Hiekkapohja
(62.3333°N, 25.7833°E)
Time: 18:57:21
(UTC+00:00)

NPP - Pass Details

Date: 07 August 2020
Orbit: 826 x 827 km, 98.7° (Epoch: 28 September)

Event Time Altitude Azimuth Distance (km) Brightness Sun altitude
Rises 00:23:23 0° 19° (NNE) 3,385 8.9 -7.8°
Reaches altitude 10° 00:25:46 10° 21° (NNE) 2,447 7.8 -7.7°
Maximum altitude 00:31:12 72° 107° (ESE) 874 3.9 -7.4°
Drops below altitude 10° 00:36:35 10° 192° (SSW) 2,431 5.5 -7.0°
Enters shadow 00:37:18 - 193° (SSW) 2,715 5.7 -7.0°
